Location: Unspecified
(0.0000°N, 0.0000°E)
Time: 21:02:35
(UTC+00:00)

TRS 6 - Visible Passes

Search period start: 22 October 2019 00:00
Search period end: 01 November 2019 00:00
Orbit: 3561 x 3726 km, 87.3° (Epoch: 21 October)

Date Brightness Start Highest point End Pass type
(mag) Time Alt. Az. Time Alt. Az. Time Alt. Az.
22 Oct ? 01:38:19 10° S 01:56:50 74° E 02:15:16 10° N visible
22 Oct ? 04:32:20 10° SW 04:41:52 16° W 04:43:31 16° W visible
22 Oct ? 23:57:08 10° SE 00:20:17 12° NE 00:21:39 10° NE visible
23 Oct ? 02:36:31 10° S 03:06:56 26° NNW 03:12:52 10° NNW visible
24 Oct ? 00:49:45 10° SSE 01:20:02 21° NNE 01:24:24 10° NNE visible
24 Oct ? 03:37:24 10° SSW 04:06:39 12° NW 04:07:33 10° NW visible
25 Oct ? 01:46:19 10° S 02:19:32 21° N 02:23:35 10° N visible
26 Oct ? 00:02:46 10° SE 00:32:16 10° NNE 00:12:57 27° ESE visible
26 Oct ? 02:45:18 10° SSW 03:18:52 14° NNW 03:20:21 10° NNW visible
27 Oct ? 00:57:09 10° SSE 01:31:29 15° NNE 01:33:16 10° N visible
27 Oct ? 03:47:37 10° SW 04:18:04 - NW 03:56:55 22° WSW visible
27 Oct ? 23:19:26 10° ESE 23:44:02 - NE 23:21:45 12° ESE visible
28 Oct ? 01:54:34 10° S 02:30:36 13° N 02:31:39 10° N visible
29 Oct ? 00:09:15 10° SSE 00:43:04 - NNE 00:19:28 32° ESE visible
29 Oct ? 02:54:27 10° SSW 03:29:38 - NNW 03:05:53 36° WSW visible
30 Oct ? 01:04:52 10° S 01:42:03 - N 01:17:15 52° SSE visible
30 Oct ? 03:59:05 10° SW 04:03:40 14° WSW 04:03:40 14° WSW visible
30 Oct ? 23:23:32 10° SE 23:54:25 - NNE 23:28:39 17° ESE visible
31 Oct ? 02:03:06 10° S 02:40:58 - NNW 02:15:05 48° SSW visible
